#timestamp,LO_Frequency,Hit,StdDev 
1617480575.0,286046979.2,P
1617480575.9,286046979.2,P
1617480595.8,286046981.0,P
1617480615.6,286046980.5,Y
1617480635.4,286047002.2,P
1617480655.3,286047004.4,N
1617480675.1,286047004.3,N
1617480695.9,286047004.0,N
1617480715.7,286047001.4,N
1617480735.5,286047001.5,N
1617480755.4,286047004.4,N
1617480775.2,286047001.5,N
1617480795.1,286047001.4,N
1617480796.0,286047001.4,N
1617480815.8,286047002.4,N
1617480835.6,286047000.3,N
1617480855.5,286047000.4,N
1617480875.3,286047001.6,N
1617480895.1,286047001.3,N
1617480915.9,286047001.6,N
1617480935.7,286047001.4,N
1617480955.6,286047003.4,N
1617480975.4,286047005.8,N
1617480995.2,286047005.0,N
1617481015.1,286047007.6,N
1617481016.0,286047007.6,N
1617481035.8,286047004.8,N
1617481055.7,286047007.2,N
1617481075.5,286047005.7,N
1617481095.3,286047003.8,N
1617481115.2,286047004.4,N
1617481135.0,286047005.6,N
1617481135.9,286047005.6,N
1617481155.8,286047004.5,N
1617481175.6,286047005.4,N
1617481195.4,286047007.1,Y
1617481215.3,286047001.3,P
1617481235.1,286047002.1,N
1617481255.8,286046999.9,N
1617481275.7,286046998.1,N
1617481295.5,286046999.9,N
1617481315.4,286047001.0,N
1617481335.2,286047001.1,N
1617481355.0,286047000.0,N
1617481355.9,286047000.0,N
1617481375.8,286047002.3,N
1617481395.6,286047000.6,N
1617481415.5,286046996.5,N
1617481435.3,286046998.0,N
1617481455.1,286046995.9,N
1617481475.9,286046993.4,Y
1617481495.7,286046986.3,P
1617481515.5,286046993.3,N
1617481535.4,286046997.4,N
1617481555.2,286046998.8,N
1617481575.1,286046998.6,N
1617481576.0,286046998.6,N
1617481595.8,286046998.3,N
1617481615.6,286046996.9,N
1617481635.5,286046997.6,N
1617481655.3,286046993.3,N
1617481675.2,286046995.6,N
1617481695.9,286046994.3,N
1617481715.7,286046992.3,N
1617481735.6,286046992.5,N
1617481755.4,286046991.3,N
1617481775.2,286046989.4,Y
1617481795.1,286046992.1,P
1617481796.0,286046992.1,P
1617481815.8,286046993.3,P
1617481835.7,286046996.4,N
1617481855.5,286046995.9,N
1617481875.3,286046996.0,N
1617481895.2,286046994.1,Y
1617481915.0,286047000.1,P
1617481915.9,286047000.1,N
1617481935.8,286047000.5,N
1617481955.6,286047000.2,N
1617481975.4,286047000.0,N
1617481995.3,286047002.3,N
1617482015.1,286047000.2,N
1617482035.8,286046999.8,N
1617482055.7,286047000.2,N
1617482075.5,286046998.2,N
1617482095.3,286046998.8,N
1617482115.2,286046998.7,N
1617482135.0,286046997.0,N
1617482135.9,286046997.0,N
1617482155.8,286046998.2,N
1617482175.6,286047000.7,N
1617482195.4,286046998.5,N
1617482215.3,286046998.3,N
1617482235.1,286046998.7,N
1617482255.8,286046998.3,N
1617482275.7,286046999.1,N
1617482295.5,286046998.6,N
1617482315.4,286047000.3,N
1617482335.2,286047002.7,N
1617482355.0,286047001.5,N
1617482355.9,286047001.5,N
1617482375.8,286047001.5,N
1617482395.6,286047003.6,N
1617482415.5,286047003.7,N
1617482435.3,286047003.8,N
1617482455.1,286047004.3,N
1617482475.9,286047002.3,N
1617482495.7,286047000.3,N
1617482515.5,286046999.7,N
1617482535.4,286047004.0,N
1617482555.2,286047002.0,N
1617482575.0,286047002.8,N
1617482576.0,286047002.8,N
1617482595.8,286047000.1,N
1617482615.6,286047002.7,N
1617482635.5,286047002.2,N
1617482655.3,286047000.0,N
1617482675.1,286047002.7,N
1617482695.9,286046999.9,N
1617482715.7,286047002.8,N
1617482735.6,286047002.5,N
1617482755.4,286047002.6,N
1617482775.2,286046999.7,N
1617482795.1,286047000.0,N
1617482796.0,286047000.0,N
1617482815.8,286047004.3,N
1617482835.6,286047001.4,N
1617482855.5,286047003.9,N
1617482875.3,286047003.7,N
1617482895.2,286047005.7,Y
1617482915.9,286047002.1,P
1617482935.7,286047002.4,P
1617482955.6,286047001.6,P
1617482975.4,286047001.6,Y
1617482995.3,286047000.7,P
1617483015.1,286047000.3,N
1617483016.0,286047000.3,N
1617483035.8,286047000.0,N
1617483055.7,286047002.6,Y
1617483075.5,286047000.9,P
1617483095.3,286046999.0,P
1617483115.2,286046998.4,N
1617483135.0,286046999.0,N
1617483135.9,286046999.0,N
1617483155.8,286047000.7,N
1617483175.6,286047001.1,N
1617483195.4,286047001.1,N
1617483215.3,286046998.2,N
1617483235.1,286046998.1,N
1617483255.9,286047000.2,N
1617483275.7,286047002.2,N
1617483295